Regional Weather Roundup
Issued by NWS

Home | Current Version | Previous Version | Text Only | Print | Product List | Glossary On
Versions: 1 2 3 4 5 6 7 8 9 10 11 12 13 14 15 16 17 18 19 20 21 22 23 24 25 26 27 28 29 30 31 32 33 34 35 36 37 38 39 40 41 42 43 44 45 46 47 48 49 50
000
ASUS45 KPSR 270910
RWRAZ

ARIZONA HOURLY REGIONAL WEATHER ROUNDUP
NATIONAL WEATHER SERVICE PHOENIX AZ
200 AM MST WED MAY 27 2015

NOTE: FAIR INDICATES FEW OR NO CLOUDS BELOW 12,000 FEET WITH NO
SIGNIFICANT WEATHER AND/OR OBSTRUCTIONS TO VISIBILITY.

AZZ001>003-036-271000-
NORTHWEST ARIZONA

CITY           SKY/WX    TMP DP  RH WIND       PRES   REMARKS
BULLHEAD CITY  PTCLDY    75  27  16 SE6       29.83S
KINGMAN        PTCLDY    62  26  25 VRB3      29.98S
$$

AZZ004>008-015-016-018-271000-
NORTH CENTRAL ARIZONA

CITY           SKY/WX    TMP DP  RH WIND       PRES   REMARKS
GRAND CANYON   PTCLDY    40  35  83 E3        30.17F
WILLIAMS       MOCLDY    45  32  61 SE7       30.23F
PRESCOTT       MOCLDY    52  34  50 S7        30.09S
FLAGSTAFF      MOCLDY    44  33  65 CALM      30.19S
PAYSON         MOCLDY    54  32  43 CALM      30.11S
PAGE           PTCLDY    61  45  55 CALM      30.05R
$$

AZZ009>014-017-271000-
NORTHEAST ARIZONA

CITY           SKY/WX    TMP DP  RH WIND       PRES   REMARKS
WINSLOW        PTCLDY    51  34  52 SE5       30.09R
SAINT JOHNS    CLEAR     52  28  39 CALM      30.13S
WINDOW ROCK    CLEAR     54  32  43 CALM      30.17F
SHOW LOW       PTCLDY    46  28  49 SE7       30.18S
$$

AZZ023-271000-
GREATER PHOENIX AREA

CITY           SKY/WX    TMP DP  RH WIND       PRES   REMARKS
PHOENIX        MOCLDY    80  36  20 N7        29.86S
BUCKEYE          N/A     68  36  30 NE5       29.88S
LUKE AFB       MOCLDY    75  37  25 SW6       29.86S
DEER VALLEY    MOCLDY    72  38  29 CALM      29.88S
SCOTTSDALE     MOCLDY    77  39  25 N5        29.90S
MESA-GATEWAY   PTCLDY    66  46  48 SE3       29.91S
$$

AZZ027-028-271000-
SOUTHWEST MARICOPA COUNTY AND PINAL COUNTY

CITY           SKY/WX    TMP DP  RH WIND       PRES   REMARKS
CASA GRANDE    PTCLDY    70  37  30 CALM      29.89S
GILA BEND      FAIR      71  36  28 S6        29.86S
$$

AZZ503-504-507>509-271000-
SOUTHEAST ARIZONA

CITY           SKY/WX    TMP DP  RH WIND       PRES   REMARKS
TUCSON         PTCLDY    69  32  25 SE5       29.99S
DAVIS-MONTHAN  PTCLDY    67  33  28 SE6       29.98S
NOGALES        CLEAR     58  30  34 E8        30.03F
SIERRA VISTA   CLEAR     64  22  20 W9        30.08F
DOUGLAS        CLEAR     59  24  26 E6        30.06R
SAFFORD        CLEAR     67  31  26 NW8       29.96R
$$

AZZ020-021-025-026-031-271000-
SOUTHWEST ARIZONA

CITY           SKY/WX    TMP DP  RH WIND       PRES   REMARKS
YUMA           MOCLDY    74  41  30 SE8       29.82F
$$

CAZ031-033-041-043-047-048-061-271000-
SOUTHERN CALIFORNIA

CITY           SKY/WX    TMP DP  RH WIND       PRES   REMARKS
DOWNTOWN L.A.  CLOUDY    60  53  77 CALM      29.99S
L.A. AIRPORT   CLOUDY    59  54  83 W3        30.00S
SAN DIEGO      CLOUDY    62  53  72 NW5       29.99F
BURBANK        CLOUDY    58  52  80 CALM      29.99S
ONTARIO        CLOUDY    59  53  80 W5        29.99S HAZE
RIVERSIDE      CLOUDY    60  54  80 CALM      29.99S
PALM SPRINGS   MOCLDY    70  53  54 CALM      29.86S
EL CENTRO NAS  MOCLDY    73  46  38 CALM      29.82S
IMPERIAL       MOCLDY    73  52  47 SE5       29.80F
BLYTHE         CLEAR     74  46  36 S8        29.82F
NEEDLES        CLEAR     81  36  19 SW3       29.83S
$$

NVZ020-UTZ003-271000-
SOUTHERN NEVADA-UTAH

CITY           SKY/WX    TMP DP  RH WIND       PRES   REMARKS
LAS VEGAS      CLOUDY    76  33  21 S7        29.84R
SALT LAKE CITY PTCLDY    54  47  77 SE8       30.05R
$$

NMZ009-TXZ055-271000-
NEW MEXICO-WEST TEXAS

CITY           SKY/WX    TMP DP  RH WIND       PRES   REMARKS
ALBUQUERQUE    PTCLDY    62  43  49 NW10      30.11R
EL PASO        CLEAR     67  30  25 CALM      30.01S
$$


........................KEY........................
SKY/WX - SKY CONDITION/WEATHER
TMP    - TEMPERATURE IN FAHRENHEIT
DP     - DEW POINT IN FAHRENHEIT
RH     - RELATIVE HUMIDITY IN PERCENT
WIND   - DIRECTION AND SPEED IN MILES PER HOUR (MPH)
VRB    - VARIABLE WIND DIRECTION
PRES   - MEAN SEA LEVEL PRESSURE IN INCHES OF MERCURY
         F - FALLING PRESSURE   R - RISING PRESSURE
         S - STEADY PRESSURE
VSB    - VISIBILITY IN MILES
HX     - HEAT INDEX IN FAHRENHEIT
WCI    - WIND CHILL INDEX IN FAHRENHEIT
TC     - TEMPERATURE IN CELSIUS WHICH IS ALSO KNOWN AS
         TEMPERATURE IN CENTIGRADE
AFB    - AIR FORCE BASE
         LUKE AFB IS LUKE AIR FORCE BASE
         DAVIS-MONTHAN IS DAVIS-MONTHAN AIR FORCE BASE
NAS    - NAVAL AIR STATION
         EL CENTRO NAS IS EL CENTRO NAVAL AIR STATION
N/A    - NOT AVAILABLE



USA.gov is the U.S. government's official web portal to all federal, state and local government web resources and services.